Location: Indian Hills
(32.9760°N, 85.9450°W)
Time: 19:03:53
(UTC+00:00)

ISS - Pass Details

Date: 13 March 2021
Orbit: 418 x 422 km, 51.6° (Epoch: 17 April)

Event Time Altitude Azimuth Distance (km) Brightness Sun altitude
Exits shadow 10:16:04 42° 15° (NNE) 607 -2.8 -21.8°
Maximum altitude 10:16:31 45° 41° (NE) 575 -2.8 -21.7°
Drops below altitude 10° 10:19:45 10° 116° (ESE) 1,488 -0.2 -21.0°
Sets 10:21:54 0° 122° (ESE) 2,349 0.8 -20.6°
